PDT,Max TemperatureF,Mean TemperatureF,Min TemperatureF,Max Dew PointF,MeanDew PointF,Min DewpointF,Max Humidity, Mean Humidity, Min Humidity, Max Sea Level PressureIn, Mean Sea Level PressureIn, Min Sea Level PressureIn, Max VisibilityMiles, Mean VisibilityMiles, Min VisibilityMiles, Max Wind SpeedMPH, Mean Wind SpeedMPH, Max Gust SpeedMPH,PrecipitationIn, CloudCover, Events, WindDirDegrees
2013-6-1,111,87,63,57,46,26,73,39,5,29.75,29.67,29.58,10,10,10,9,1,13,0.00,0,,128
2013-6-2,106,86,65,56,48,35,63,37,11,29.68,29.59,29.51,10,10,10,15,6,20,0.00,0,,86
2013-6-3,102,89,76,54,47,37,33,22,11,29.70,29.63,29.57,10,10,10,15,7,20,0.00,0,,336
2013-6-4,102,86,70,55,46,25,57,32,7,29.78,29.72,29.65,10,10,10,13,5,16,0.00,0,,340
2013-6-5,106,89,72,53,45,27,49,28,6,29.83,29.73,29.66,10,10,9,18,6,26,0.00,0,,333
2013-6-6,111,95,79,52,41,26,34,20,6,29.73,29.66,29.59,10,10,10,15,7,20,0.00,0,,319
2013-6-7,109,87,65,55,48,37,56,33,10,29.68,29.61,29.54,10,10,7,17,7,23,0.00,0,,302
2013-6-8,103,85,67,61,56,44,63,40,16,29.73,29.67,29.58,10,10,10,13,7,20,0.00,0,,144
2013-6-9,101,83,65,64,54,29,73,42,11,29.81,29.73,29.67,10,10,10,13,4,16,0.00,0,,136
2013-6-10,105,83,61,53,42,30,48,29,9,29.78,29.72,29.65,10,10,10,17,5,22,0.00,0,,15
2013-6-11,106,88,69,53,37,18,41,23,4,29.81,29.75,29.68,10,10,10,16,7,23,0.00,0,,353
2013-6-12,105,89,72,61,51,45,40,27,14,29.83,29.75,29.70,10,10,9,16,7,21,0.00,0,,8
2013-6-13,107,92,77,53,43,29,43,25,7,29.83,29.74,29.66,10,10,10,15,7,21,0.00,0,,334
2013-6-14,104,84,63,57,44,21,60,33,6,29.79,29.70,29.61,10,10,9,15,6,21,0.00,0,,341
2013-6-15,104,84,63,50,40,23,60,33,6,29.78,29.72,29.67,10,10,9,14,5,22,0.00,0,,321
2013-6-16,107,84,60,50,35,3,64,33,2,29.85,29.78,29.71,10,10,10,16,7,22,0.00,0,,327
2013-6-17,107,93,78,50,38,5,33,18,2,29.81,29.75,29.68,10,10,10,12,8,17,0.00,0,,327
2013-6-18,105,86,67,54,46,35,55,32,9,29.74,29.67,29.58,10,10,8,13,5,17,0.00,0,,310
2013-6-19,106,89,72,50,39,27,33,20,6,29.69,29.62,29.57,10,9,2,22,7,30,0.00,0,,334
2013-6-20,102,90,77,50,42,21,37,22,6,29.71,29.65,29.61,10,10,10,23,8,32,0.00,0,,319
2013-6-21,103,88,73,54,44,37,41,26,11,29.76,29.68,29.62,10,10,9,21,8,26,0.00,0,,342
2013-6-22,104,91,78,51,43,32,32,21,9,29.74,29.67,29.60,10,10,10,18,8,26,0.00,0,,315
2013-6-23,103,90,76,52,49,41,37,26,15,29.68,29.62,29.55,10,10,10,23,8,30,0.00,0,,327
2013-6-24,98,85,72,55,51,45,49,34,18,29.74,29.69,29.61,10,10,6,15,11,23,0.00,0,,323
2013-6-25,104,90,76,58,54,50,50,34,18,29.85,29.77,29.69,10,10,10,16,8,23,0.00,0,,320
2013-6-26,104,90,75,66,58,52,55,36,17,29.89,29.82,29.76,10,10,9,13,6,16,0.00,0,,130
2013-6-27,107,89,70,61,56,51,70,44,17,29.94,29.86,29.78,10,10,10,15,5,18,0.00,0,,120
2013-6-28,118,103,88,54,49,42,29,19,9,29.81,29.73,29.63,10,10,8,13,7,17,0.00,0,,319
2013-6-29,122,105,88,66,49,35,21,14,6,29.68,29.64,29.55,10,10,10,20,8,25,0.00,0,,248
2013-6-30,109,92,75,69,62,56,69,44,18,29.73,29.65,29.55,10,10,10,12,5,20,0.00,0,,144